GFSWCAN_con_3kmhel_069.txt.gz
Helicity
32 41 36 36 37 31 20 17 6 9 -2 -18 -36 -35 -31 -21 -11 94 90 118 109 75 24 31 25 43 38 12 53 36 1 89 84 24 30 77 54 47 56 40 32 17 10 27 43 45 31 35 39 40 46 137 80 262
40 20 37 44 33 29 26 3 -5 -12 -22 -39 -36 -18 -17 -13 0 45 114 124 117 117 48 50 23 6 29 55 19 25 1 32 71 58 47 61 62 59 37 31 37 26 38 66 35 42 78 60 115 163 126 96 70 208
35 34 29 23 32 28 6 -12 -16 -28 -45 -41 -26 -3 2 8 19 55 179 179 125 103 31 17 12 52 25 31 -12 6 22 -2 11 118 62 41 64 40 51 26 18 1 7 10 50 66 110 136 156 244 293 308 240 178
40 27 28 27 24 18 0 -12 -27 -40 -34 -15 -6 8 4 -2 17 52 177 259 198 128 106 11 19 33 20 19 -7 1 -12 7 27 118 98 48 54 16 33 27 2 43 25 32 23 102 137 169 167 191 329 337 309 279
34 26 25 27 22 11 -1 -12 -35 -14 33 31 31 56 36 10 37 62 264 239 192 136 60 34 41 43 17 22 -6 1 21 -21 30 85 52 43 26 20 -5 35 61 53 39 21 57 71 158 158 214 206 163 235 274 298
17 24 33 29 21 9 4 -31 21 56 21 29 13 37 -7 41 124 384 251 140 89 116 20 43 54 64 45 9 -7 17 31 31 9 19 19 -7 -20 -12 26 65 112 52 44 4 11 94 80 52 60 126 184 91 62 84
28 32 35 33 25 21 28 38 54 48 46 38 -1 71 89 351 288 204 113 67 133 127 8 14 33 27 23 16 25 36 41 37 30 -5 -24 -4 -14 -34 16 38 74 51 79 36 28 -2 -9 32 16 36 48 50 38 48
36 39 37 35 59 66 52 51 62 50 16 59 87 221 156 142 196 143 100 37 161 55 7 3 13 7 21 14 37 63 77 63 42 -1 -5 -8 -15 -5 3 14 24 33 57 56 39 65 80 68 56 38 36 21 40 61
39 42 55 70 55 45 36 70 33 52 123 184 232 213 223 210 129 74 19 57 101 11 -12 -5 16 23 9 23 57 88 66 55 2 -12 9 8 21 40 57 46 34 55 41 38 45 60 67 67 53 53 52 56 71 61
58 67 47 54 50 48 62 42 40 157 254 339 243 210 139 113 3 69 57 41 5 -9 -6 13 -5 46 53 50 61 42 40 17 3 23 46 66 74 100 106 101 80 81 72 61 44 66 66 79 81 77 74 82 79 79
75 80 92 112 71 10 22 109 145 277 252 233 182 131 132 -25 51 73 57 44 22 35 15 29 127 193 140 88 32 18 37 33 23 30 28 43 65 87 94 94 84 69 85 116 124 126 143 97 66 69 89 100 108 114
121 85 24 25 27 43 141 190 268 246 143 94 56 151 151 106 86 55 43 32 49 47 36 71 85 91 101 108 68 41 38 33 23 36 45 37 52 80 67 68 86 98 113 123 115 115 106 108 97 104 104 116 138 149
15 19 16 13 30 156 200 178 124 94 70 176 231 171 112 82 54 70 33 50 49 35 35 33 41 37 40 47 41 27 14 17 35 56 27 29 68 61 51 45 55 69 87 106 126 130 138 149 165 152 168 178 161 152
20 1 29 40 152 173 135 45 19 34 144 154 135 97 83 48 40 33 43 45 45 51 26 35 25 32 30 35 46 33 34 30 25 23 25 39 59 61 48 50 57 59 79 95 100 100 115 131 141 135 126 107 105 112
15 19 70 127 120 111 28 15 43 46 136 107 73 35 73 42 35 58 67 58 50 58 56 43 37 36 34 14 28 26 25 31 13 23 10 36 60 61 61 59 58 68 82 95 90 102 109 111 115 120 107 94 83 65
35 80 113 101 64 36 112 112 111 42 89 86 57 29 46 57 71 90 88 71 79 81 71 49 22 32 26 17 21 24 39 24 29 23 34 59 50 69 61 68 81 92 101 100 93 88 87 86 79 65 51 46 40 35
141 200 154 178 159 160 139 109 75 49 19 26 29 71 41 66 85 76 75 93 105 70 50 29 26 15 27 21 29 32 43 28 23 65 72 50 40 82 88 100 98 90 82 72 58 44 39 25 19 26 38 25 39 37
352 217 232 180 238 242 206 96 15 39 7 12 37 72 48 57 54 72 84 95 79 60 47 27 32 43 22 10 -2 9 55 82 76 67 74 85 91 90 90 87 64 48 34 20 12 7 1 -5 5 17 30 41 48 46
191 157 115 126 208 136 61 63 -12 -4 31 62 62 53 45 48 69 83 94 123 102 92 62 49 38 20 16 21 15 47 74 74 84 89 86 84 81 67 54 40 29 25 40 40 47 54 62 72 59 56 61 69 82 94
100 8 130 102 132 96 49 59 58 11 5 40 57 63 40 41 60 108 153 149 102 63 39 26 23 4 -22 -50 -4 46 64 94 114 126 116 72 34 36 33 35 47 61 75 85 85 83 85 88 85 84 104 106 108 104
221 181 123 121 129 76 64 62 70 28 31 33 53 53 45 44 54 71 74 87 38 20 6 8 -11 -7 62 76 112 121 110 84 67 33 33 44 26 53 68 71 73 81 84 95 107 102 107 90 72 80 95 104 105 99
114 125 181 156 62 57 16 39 22 42 36 25 36 21 30 45 47 42 37 29 16 23 -4 -28 -12 77 113 107 93 65 39 46 60 71 84 78 76 75 76 77 102 112 115 105 108 108 108 106 92 93 98 87 87 92
95 118 112 78 37 40 27 54 26 31 -9 13 37 28 23 20 12 16 -7 0 29 53 81 96 119 122 116 89 58 43 45 84 91 93 95 105 103 101 108 110 101 119 118 97 87 78 79 78 95 97 89 97 99 94
95 73 52 26 10 -8 21 28 40 28 28 31 17 -5 9 -11 -1 -9 -21 9 46 58 57 75 82 86 57 41 54 49 57 89 113 127 99 120 135 129 126 127 120 106 85 90 100 104 97 92 89 102 101 97 96 92
20 63 30 14 21 -9 -2 15 30 23 13 24 8 2 2 -3 -13 -15 -29 9 9 25 43 41 30 32 77 68 61 73 54 77 107 121 90 93 133 140 150 137 136 121 86 114 101 106 104 103 104 95 85 84 80 78
-1 33 10 14 14 -34 -39 -2 10 11 28 31 17 13 12 -7 -11 0 -1 5 -6 -3 1 18 66 72 66 48 76 76 67 85 113 128 103 96 100 137 135 136 126 104 94 90 99 103 111 104 102 96 80 73 72 86
17 40 37 57 95 87 51 61 68 46 32 7 20 25 14 1 5 7 -16 -32 -34 -25 -16 27 45 62 83 86 94 98 106 97 102 122 130 139 126 96 111 126 119 94 95 96 96 93 94 93 92 87 82 82 83 87
15 42 72 124 108 107 91 79 50 37 37 54 49 30 8 -3 -16 39 -2 5 67 97 123 101 90 105 109 101 108 156 179 166 180 175 171 171 151 135 122 122 113 104 90 81 87 89 84 81 78 72 75 74 72 75
30 72 64 106 84 50 38 46 56 45 60 63 18 11 9 51 78 47 76 86 96 152 168 166 148 148 167 169 157 146 118 122 161 160 151 122 100 89 92 97 102 95 88 92 74 81 86 81 75 73 68 75 69 78
62 74 60 67 49 43 51 64 78 78 66 48 32 68 112 128 225 169 112 104 114 124 103 96 84 115 126 142 148 156 131 87 77 117 123 107 86 91 90 93 99 88 84 100 93 80 92 98 90 94 89 86 88 83
72 84 82 91 75 51 7 54 101 98 91 98 164 176 204 202 216 191 124 70 85 112 136 129 115 92 116 115 121 140 131 106 105 95 91 107 108 94 82 75 72 75 82 88 93 88 82 81 79 73 69 63 58 69
84 72 75 85 107 20 115 113 117 166 162 136 132 133 148 137 117 89 51 44 91 95 68 86 111 87 67 86 93 88 103 109 93 90 100 97 94 84 83 81 80 87 92 90 86 83 81 78 70 60 54 51 50 50
121 119 114 163 110 46 55 91 100 118 130 95 85 83 80 88 81 56 28 37 56 67 69 81 103 110 104 118 125 113 105 92 84 92 92 89 85 81 78 78 86 88 92 90 85 78 77 69 58 54 50 50 49 55

GFSWCAN_con_3kmhel_072.txt.gz
Helicity
24 33 38 24 28 32 37 33 35 25 15 7 9 -7 -17 -15 6 94 57 100 129 72 33 49 34 45 70 55 38 -4 16 -15 44 18 12 64 94 81 82 69 53 37 24 31 41 32 20 39 64 52 38 39 13 172
48 42 38 34 27 27 32 29 22 23 13 15 -1 -23 -31 -27 -21 62 89 112 122 102 52 48 26 10 34 67 9 16 15 6 -2 92 65 21 53 58 58 70 53 47 32 13 21 35 45 37 9 68 116 55 9 58
89 30 5 31 28 30 31 29 33 17 3 -5 -22 -37 -42 -24 -6 51 131 178 131 113 70 82 31 49 56 44 37 16 -3 7 11 17 129 28 31 23 48 39 37 29 21 20 32 67 59 36 60 96 175 240 167 104
12 26 30 29 34 23 26 29 15 5 -5 -24 -45 -51 -45 -22 -2 39 186 225 201 159 99 22 35 21 35 27 -16 54 19 -24 28 43 130 69 56 30 26 29 5 18 15 44 13 42 79 107 91 86 123 161 183 189
31 33 33 39 37 28 27 16 13 4 -15 -43 -41 -39 -23 -6 13 -15 96 311 269 198 89 67 39 9 29 46 3 17 -25 -33 19 115 90 65 45 46 45 8 29 36 44 52 45 42 59 91 111 130 147 124 95 127
37 39 30 32 20 25 25 22 12 -3 -33 -40 -35 -5 11 57 46 248 266 294 269 334 289 115 28 23 51 28 34 9 -1 3 21 47 31 32 -2 20 28 31 34 92 16 57 31 74 63 64 112 113 130 91 95 81
32 32 25 22 31 27 27 24 17 5 6 24 19 52 30 22 241 208 150 145 375 222 115 47 49 33 33 35 32 28 21 8 5 20 -8 -1 4 -14 15 65 55 52 50 32 28 -40 25 52 16 13 13 55 61 34
23 25 31 37 36 33 37 38 49 56 42 60 45 156 201 242 241 244 223 72 114 157 56 16 23 29 23 15 20 2 -11 33 2 12 14 -20 -32 -5 15 27 3 31 47 64 36 46 36 21 20 17 -3 4 26 40
26 26 45 38 40 43 59 77 44 36 90 90 246 173 188 192 145 101 30 99 107 39 -22 -12 -4 15 7 20 28 38 43 18 22 10 2 -24 -2 -4 11 19 27 28 12 15 18 43 46 47 44 39 21 27 36 43
39 41 40 43 40 70 61 43 53 22 298 280 264 202 136 76 11 60 83 61 45 18 -8 -5 -1 23 20 25 44 50 46 23 -2 -2 28 11 34 66 65 73 74 72 70 65 25 38 40 51 53 57 71 70 64 67
48 51 48 56 61 50 62 47 42 273 190 168 181 181 64 18 106 71 52 22 3 -1 2 32 29 20 18 39 21 6 4 -2 11 -6 7 -1 8 62 92 93 95 88 74 66 86 100 118 89 65 57 73 90 98 102
66 74 68 49 51 55 89 78 238 251 129 123 134 169 159 84 79 48 31 16 31 42 11 13 37 53 66 47 18 10 9 7 9 25 17 14 29 72 84 89 78 73 78 95 107 106 100 100 86 78 73 84 99 104
68 69 83 86 128 68 59 228 193 201 145 138 167 161 92 52 45 32 41 51 38 17 36 62 64 61 134 81 37 32 11 3 44 34 16 30 45 44 52 52 63 74 80 100 119 127 123 130 135 117 115 111 116 134
89 107 125 64 21 141 192 207 80 88 150 144 140 92 74 37 28 34 41 32 33 42 32 38 37 41 47 37 39 22 22 35 -5 -25 -6 40 57 68 72 68 62 75 105 122 129 125 128 134 141 135 116 96 102 111
61 40 35 25 131 276 143 4 119 128 118 149 110 51 39 36 39 41 64 44 43 38 27 30 20 24 23 8 8 10 16 0 -6 3 18 36 68 56 50 57 72 84 106 128 126 133 131 121 121 122 110 100 93 80
38 42 66 148 215 75 34 131 119 128 108 93 74 32 49 45 71 72 88 46 54 55 48 19 14 19 7 5 20 9 16 10 18 34 30 71 74 75 66 74 88 94 110 116 120 117 113 111 101 83 70 64 56 51
31 161 217 178 112 123 98 49 35 79 64 48 35 50 54 75 77 89 85 80 105 61 33 28 29 23 21 20 15 36 19 32 23 37 41 60 58 50 66 79 71 61 64 72 75 75 77 60 51 55 70 46 50 51
196 183 128 117 222 216 170 11 7 89 64 42 19 36 19 59 78 86 84 103 73 31 21 8 13 27 9 1 4 8 41 53 42 48 43 54 70 81 83 83 65 56 53 42 33 27 18 14 23 29 37 49 64 63
266 225 179 182 174 155 84 9 60 26 21 16 70 60 45 48 61 67 72 106 92 90 62 42 32 22 14 11 15 10 33 56 66 77 85 82 70 60 47 33 25 19 24 28 32 41 49 58 64 62 71 72 73 75
279 238 200 159 104 116 70 27 7 6 35 38 51 60 41 38 39 77 112 116 100 88 76 41 6 4 -15 -35 -55 -20 43 93 107 102 74 39 19 24 25 37 51 67 79 88 95 89 86 89 89 85 86 91 96 97
249 221 183 166 134 71 34 23 48 9 8 8 36 30 26 40 55 83 97 100 74 52 16 -2 -8 -4 -26 45 43 61 63 62 48 29 18 31 23 52 61 73 88 91 91 94 101 98 100 91 79 86 95 109 106 96
154 142 141 121 38 23 6 46 17 25 15 0 29 31 29 48 60 60 54 35 17 29 5 -17 -22 -1 51 47 52 51 48 48 57 69 82 79 77 87 87 87 106 107 106 95 98 98 101 98 97 102 101 88 88 88
156 135 116 92 32 39 12 36 18 26 12 28 54 32 26 26 34 27 7 11 21 42 42 27 50 80 96 94 91 57 46 78 85 86 92 101 104 109 113 111 107 126 123 104 101 96 89 81 90 92 92 95 93 84
151 110 57 58 60 39 59 62 48 29 23 14 16 14 11 9 14 6 -15 -3 42 58 26 43 94 119 114 75 59 49 54 84 111 120 96 122 141 126 124 129 125 117 100 102 105 104 98 87 81 93 90 83 79 72
53 80 30 43 36 -7 -2 23 37 29 26 31 15 10 -11 -7 -6 -6 -29 0 18 6 55 84 97 72 81 63 49 59 50 67 106 132 92 99 128 135 147 129 121 105 84 110 99 98 96 97 103 97 84 80 66 57
11 44 -1 -15 -8 -27 -36 -36 -18 -5 6 13 6 6 3 -8 -17 -11 -15 -12 -15 19 15 29 55 71 63 40 60 51 53 66 105 123 96 85 94 129 128 132 121 99 95 101 111 103 97 96 101 96 82 76 69 75
-13 7 14 44 26 -2 -19 12 28 21 18 -6 -1 8 1 -14 -2 13 31 58 5 9 34 48 55 56 63 67 73 82 95 89 98 117 120 132 118 98 111 123 112 91 99 102 101 100 97 95 96 93 85 80 74 76
-8 8 13 64 77 74 6 52 51 42 41 48 38 26 1 2 14 42 59 65 79 116 115 104 88 93 96 87 103 141 159 146 157 149 155 169 155 139 128 119 111 110 101 96 98 99 95 92 87 81 77 72 67 67
11 50 66 133 114 70 53 43 38 45 67 66 38 36 38 53 64 108 107 85 102 143 139 137 129 131 158 155 144 136 124 123 147 152 154 136 118 95 91 93 95 95 91 90 74 83 86 87 82 79 70 69 61 69
44 63 54 74 70 74 84 60 66 74 81 82 47 52 77 99 168 191 156 136 127 146 131 117 91 104 115 138 153 143 112 81 95 124 139 119 94 94 105 102 100 94 94 103 94 82 96 101 94 93 90 83 82 69
67 76 62 65 39 43 33 92 87 71 72 72 81 99 129 188 254 258 189 134 127 133 152 134 116 94 121 123 128 136 119 99 108 102 100 108 109 106 93 82 78 82 93 96 94 91 88 88 85 81 75 62 52 54
81 66 62 69 87 57 86 73 71 109 136 135 144 128 171 170 163 141 125 106 111 108 78 77 94 74 69 81 88 88 98 127 112 100 106 102 99 88 84 80 80 92 101 101 95 91 89 88 83 76 65 54 49 45
87 96 97 104 103 102 87 88 100 102 148 133 113 92 99 101 88 68 68 66 64 63 66 76 95 112 109 112 126 133 137 124 109 103 98 97 93 86 81 79 88 94 101 98 95 89 89 85 75 66 60 61 58 56

GFSWCAN_con_3kmhel_075.txt.gz
Helicity
47 38 4 8 44 38 34 36 38 27 34 36 27 20 15 21 34 59 22 55 96 53 32 51 37 45 61 56 37 20 19 -5 -27 -5 -19 122 139 94 83 97 93 60 42 28 11 5 -5 67 42 46 49 32 2 1
21 24 12 18 37 36 28 25 31 38 34 24 15 18 20 17 26 54 19 53 98 61 26 48 47 37 46 41 19 15 22 56 -8 35 63 39 50 63 77 82 66 81 79 46 19 54 54 40 35 27 73 51 34 10
40 11 29 28 23 33 32 43 32 25 21 22 19 12 8 -1 -2 47 73 93 105 63 54 39 26 75 72 55 54 21 12 1 1 -2 31 47 28 37 34 51 59 35 38 28 22 101 108 27 31 68 85 101 105 86
43 43 73 42 16 19 42 39 27 27 20 18 1 -9 -13 -20 -27 37 149 150 135 99 63 21 50 36 27 52 64 62 48 12 4 23 50 46 34 28 23 34 15 14 3 9 14 23 29 101 79 71 112 120 144 121
35 31 43 40 21 24 35 21 22 25 12 0 -12 -28 -41 -38 -28 -5 73 218 182 140 59 23 32 24 54 54 29 10 10 21 9 31 46 37 16 35 38 16 14 10 12 21 42 37 66 61 67 70 89 93 79 71
48 20 27 25 31 29 38 33 24 14 9 -3 -19 -40 -41 -27 -2 57 103 95 127 219 174 106 69 65 69 27 20 11 19 0 27 15 47 23 0 11 28 9 4 18 52 101 44 85 95 80 100 103 94 99 113 88
31 37 15 28 30 32 28 24 16 17 7 1 -7 -40 -39 -24 12 175 218 142 214 453 265 119 63 64 43 54 41 44 16 13 3 17 -2 5 32 -4 21 39 76 24 3 38 35 2 48 38 20 31 49 45 56 85
41 36 31 25 35 28 23 26 25 25 31 38 3 16 56 91 170 161 128 137 285 262 87 72 50 27 26 30 25 29 17 19 -5 15 0 -8 -8 -15 -1 48 64 54 26 49 75 76 33 11 22 18 7 7 32 44
35 16 13 33 31 32 29 34 45 49 42 63 123 249 237 165 119 120 118 171 116 19 65 1 -10 11 17 29 21 10 4 -13 7 -11 -3 -11 -7 -8 22 51 35 55 41 15 12 17 29 42 28 28 34 31 39 42
24 -3 25 38 36 32 38 51 78 55 58 190 280 117 88 98 112 105 66 47 70 35 -28 -21 -15 9 -2 16 18 17 1 -4 -9 -3 37 4 14 41 48 38 40 43 53 52 13 26 32 50 52 52 64 66 72 79
-8 16 28 35 39 47 51 82 50 106 173 249 222 145 87 5 83 68 55 29 12 10 -16 -20 5 -6 -9 34 21 20 -20 -24 -15 -8 -15 -25 8 41 58 70 78 78 83 92 96 100 108 81 68 64 74 79 78 83
19 26 36 45 52 67 74 24 32 198 124 75 214 217 85 100 61 21 5 3 3 28 12 2 11 11 2 15 29 21 15 -12 9 2 -5 16 24 45 56 75 82 73 70 89 99 109 125 117 91 90 88 102 102 103
40 48 55 56 66 90 50 83 33 113 94 140 176 135 78 58 28 14 20 29 40 17 18 25 12 14 15 16 7 11 -8 -7 27 -2 5 15 24 45 41 38 44 45 57 77 92 95 95 105 101 84 92 93 94 102
54 60 66 74 76 45 62 80 47 93 183 150 110 70 48 34 26 27 30 44 37 30 27 29 38 35 21 10 8 -5 -2 -8 -12 -7 -20 26 44 51 53 44 47 50 60 73 76 87 113 128 133 123 111 85 79 80
72 67 67 60 53 152 58 199 38 220 145 106 79 38 40 34 40 59 53 44 33 42 37 27 35 37 42 2 6 -14 -25 -29 -26 -21 18 41 51 37 43 50 60 65 75 96 92 108 112 106 105 100 83 73 66 54
74 88 68 98 123 205 250 210 195 128 112 106 67 34 40 36 50 64 47 25 42 43 24 23 6 5 2 -5 -16 -17 -21 -14 -16 9 11 24 37 53 61 81 93 98 111 103 94 85 79 72 71 63 48 45 34 29
88 87 59 222 259 147 199 222 153 93 97 75 49 52 43 48 48 62 58 55 80 44 12 7 -8 -14 -4 -17 -22 -32 -23 24 6 14 30 46 54 62 70 94 98 92 96 94 90 82 74 54 41 42 60 37 40 38
104 139 182 179 226 265 285 122 116 117 74 79 44 46 58 72 79 82 81 92 61 29 22 6 8 -7 -16 -20 -15 -3 34 49 51 44 45 51 65 73 86 106 99 89 77 63 55 51 49 55 62 65 66 70 78 78
187 183 182 164 216 181 74 11 85 58 42 31 20 62 48 66 70 74 80 91 70 71 30 16 2 -17 -24 -32 -3 5 -4 27 72 80 85 82 74 72 68 57 49 48 50 50 53 59 66 76 76 69 70 69 77 74
241 268 224 197 151 133 35 53 70 91 33 18 68 72 58 61 55 74 94 93 75 58 41 25 5 10 -3 -32 -61 -57 -8 83 123 113 80 46 29 31 30 36 38 50 61 77 83 78 76 86 91 90 85 80 75 78
302 274 219 164 158 104 40 35 42 33 26 65 78 61 51 46 56 67 71 82 58 48 38 41 -2 -30 -41 -42 36 60 61 81 49 19 18 32 21 43 54 61 74 75 77 79 93 98 104 106 90 91 97 114 110 102
286 159 154 117 82 55 19 39 6 18 13 4 24 20 15 28 40 47 46 60 49 23 11 -9 -17 -18 73 50 53 69 67 37 27 52 67 75 75 73 77 81 91 102 109 107 112 116 115 103 93 91 95 93 87 91
157 153 119 75 23 16 10 32 10 16 -3 -1 19 19 24 24 30 32 18 17 21 41 57 61 64 99 119 116 115 69 25 49 60 73 81 90 90 92 100 94 96 115 125 118 110 108 101 80 87 86 82 81 75 72
124 64 35 29 13 21 38 40 28 28 26 26 22 24 23 21 28 22 -3 6 45 80 53 76 101 134 133 97 50 32 40 67 103 102 88 113 137 126 116 125 122 119 112 114 105 106 97 93 80 82 81 79 75 68
49 64 32 19 36 28 45 52 59 34 34 42 35 34 12 14 0 -6 -16 -2 35 39 86 94 102 79 67 50 48 48 40 65 98 120 85 89 123 133 133 131 130 116 95 107 103 96 97 94 92 90 85 77 70 67
46 70 42 21 40 27 26 39 31 18 13 17 9 15 14 -11 -16 -9 -9 0 29 33 55 64 56 68 50 36 66 66 64 66 97 111 91 83 95 121 137 145 137 120 92 96 108 99 95 96 94 91 86 83 79 76
31 33 50 69 45 20 7 32 28 8 6 -7 2 0 -9 -13 -3 5 25 60 74 75 64 58 47 50 71 84 96 96 92 85 91 108 112 116 109 104 114 126 113 112 106 104 102 103 103 100 96 90 84 80 77 75
-6 4 -23 24 40 57 -15 16 15 7 16 37 22 6 -17 -7 3 43 65 93 81 111 113 93 75 88 108 103 103 124 145 142 158 156 162 167 151 136 129 122 123 125 111 100 104 104 102 100 95 90 85 79 75 77
-2 24 31 50 51 35 34 15 14 46 64 67 34 30 31 46 48 71 90 58 64 102 130 133 129 140 168 150 123 103 115 120 149 143 141 139 123 113 101 101 102 100 97 96 83 93 90 89 83 79 75 70 70 68
21 41 29 57 77 70 65 52 68 75 90 90 68 64 69 69 100 130 94 70 64 99 105 101 87 94 103 122 129 126 96 86 93 117 131 125 112 114 106 100 102 99 94 100 95 87 97 96 91 87 82 80 80 69
45 54 48 61 68 69 66 94 90 87 94 92 88 59 62 87 158 184 144 105 97 103 130 118 95 73 98 101 110 129 115 84 89 95 100 117 119 108 100 96 92 89 95 96 93 89 84 82 80 75 71 69 66 65
64 47 36 45 63 52 72 87 84 79 98 88 85 74 115 154 159 145 131 108 106 106 81 76 89 68 65 82 85 87 95 131 126 119 116 105 102 93 89 88 85 90 93 94 89 85 82 78 74 72 68 65 65 66
69 80 83 70 68 61 56 49 70 70 95 95 101 99 94 116 93 93 97 104 78 65 68 80 93 106 102 103 117 132 140 129 117 109 105 102 99 92 86 83 88 88 90 88 83 77 77 74 72 68 66 67 66 68

GFSWCAN_con_3kmhel_078.txt.gz
Helicity
2 43 34 28 20 55 38 45 41 36 35 35 28 22 12 5 39 1 -10 -6 -18 -17 -32 -1 -0 -2 15 16 -3 21 21 1 7 -8 -24 85 141 57 57 66 46 17 25 35 27 32 38 77 33 45 61 34 51 28
25 40 48 44 18 19 17 24 11 33 34 36 39 27 17 23 34 2 -3 6 1 -16 -25 -12 -1 6 30 17 -14 9 14 19 14 23 19 65 100 65 68 62 77 84 83 83 74 61 49 40 55 42 37 40 39 39
29 44 57 44 5 10 25 15 34 33 34 35 23 14 15 20 32 16 3 28 30 4 21 16 -6 35 74 52 18 7 -6 -5 -1 -24 17 38 67 64 59 54 86 46 82 62 49 83 121 126 83 57 64 60 54 73
-9 67 55 27 22 10 13 36 46 29 30 18 13 14 17 15 9 30 37 49 69 34 -0 21 25 26 29 54 61 79 23 14 5 8 24 24 27 25 37 38 39 38 56 59 39 44 53 60 85 64 68 77 88 83
7 35 39 34 37 25 10 48 46 47 28 18 19 9 -1 -6 -19 -3 30 70 60 38 45 27 -18 14 13 69 38 1 -1 -4 12 12 15 22 19 16 18 20 19 16 23 15 45 44 50 37 61 61 65 58 42 37
-9 35 24 20 50 36 29 25 41 38 22 11 8 -0 -4 -20 -11 5 -7 69 116 117 121 94 56 29 51 52 12 9 6 -4 9 10 23 21 19 1 26 12 -3 7 17 39 24 68 84 62 77 76 75 66 62 65
-3 26 26 31 50 47 31 25 35 25 12 10 7 -0 -11 -37 -15 53 32 71 134 339 196 141 96 101 93 46 22 22 10 2 6 10 8 28 21 -3 12 11 5 -3 19 66 21 23 36 30 27 43 49 43 43 51
24 14 24 25 21 31 30 31 26 15 19 19 17 15 13 -1 -5 7 87 154 266 220 165 148 106 64 46 27 23 18 7 4 -0 13 8 7 6 1 6 18 39 17 21 39 53 48 52 25 21 18 17 19 31 44
34 31 41 22 12 25 36 30 14 14 36 33 46 43 98 86 64 68 150 175 143 109 84 55 21 23 2 9 12 7 -0 6 3 10 -8 -11 -10 16 2 33 50 44 47 17 12 21 24 23 25 29 33 39 41 52
46 45 56 41 21 30 31 21 27 20 55 58 140 61 72 118 140 113 78 66 43 21 20 15 -8 -2 -11 -3 -1 7 2 22 8 -12 -33 -12 7 13 26 59 43 38 49 25 10 16 14 26 40 54 67 84 92 101
48 40 26 14 27 29 26 27 42 92 84 156 117 106 99 55 85 54 59 37 38 6 -11 -24 -3 -11 -8 -3 13 18 16 6 26 -13 -15 -24 -15 -5 -1 29 32 34 43 69 92 91 85 80 72 76 88 97 96 102
30 20 12 34 31 25 31 38 64 50 37 102 117 203 130 62 62 46 21 8 21 17 -9 -13 4 24 -8 2 15 5 14 3 16 -1 -3 14 21 6 13 29 37 46 51 62 73 78 85 92 86 82 81 89 95 101
25 8 23 26 32 43 50 60 31 86 113 165 216 151 51 39 -0 9 12 13 32 25 15 14 10 -2 4 17 7 7 14 4 -13 -14 25 36 14 18 13 15 22 30 44 61 88 105 117 128 140 129 129 121 117 126
25 26 26 37 50 65 64 44 35 119 254 127 53 72 19 -1 23 38 35 44 30 22 22 17 38 32 20 13 6 11 -5 -1 1 12 24 19 19 23 29 32 35 49 58 72 89 103 118 122 126 115 103 86 86 97
28 39 46 60 70 81 41 94 1 250 265 109 44 13 7 26 37 43 38 25 29 44 29 19 19 24 6 -1 7 9 -4 -12 -9 -19 -16 44 50 40 35 38 55 76 88 100 105 112 108 99 98 102 89 82 80 78
37 50 65 56 61 55 62 85 165 188 141 86 35 17 35 38 38 45 37 24 50 49 40 30 18 5 -3 -8 -21 -13 -13 -23 -30 -14 53 62 58 56 66 80 84 73 74 84 86 89 87 78 74 74 65 63 61 62
35 40 36 55 54 101 116 270 250 192 120 39 26 36 48 50 49 50 48 38 56 48 27 19 -1 -1 -1 -12 -15 -16 -15 -12 58 75 79 89 89 91 89 83 74 76 86 85 80 72 70 60 52 50 61 49 49 56
56 75 10 53 361 384 356 291 157 106 44 37 46 43 43 51 41 49 47 52 54 25 25 10 -3 -10 -6 -12 -24 -31 14 53 72 82 83 87 89 82 73 82 72 66 64 56 54 53 51 45 52 64 69 69 71 71
94 175 203 146 291 287 175 184 147 60 42 60 35 26 53 51 50 61 67 60 54 56 22 1 -12 -16 -21 -18 -29 38 24 -17 69 105 100 83 71 61 55 52 51 56 63 63 62 69 81 84 92 86 87 78 86 88
163 154 188 227 212 218 150 110 71 68 43 41 18 40 41 47 53 67 65 63 55 46 21 9 6 2 17 11 1 9 15 40 76 103 82 45 35 43 50 52 62 73 75 83 88 87 97 106 111 111 110 105 97 103
282 247 242 179 155 129 41 62 70 63 35 19 57 87 68 50 57 56 49 63 43 34 25 38 54 19 16 18 44 81 63 48 47 29 47 56 42 48 60 69 76 81 91 100 104 117 105 129 116 111 111 117 114 110
317 234 199 152 98 50 64 77 51 42 33 71 66 55 43 43 36 35 39 42 31 36 50 27 18 21 37 43 84 83 87 74 54 65 63 70 69 71 77 79 82 93 99 101 105 115 121 114 106 101 98 110 88 98
188 177 163 131 30 30 37 37 38 37 36 28 27 17 4 5 22 35 17 38 29 23 45 61 72 90 100 113 120 116 63 51 58 62 66 72 85 90 93 93 93 102 118 118 116 115 122 105 101 96 97 92 88 83
184 100 59 19 10 7 21 30 25 21 19 18 6 1 -1 6 23 22 11 4 18 50 59 64 93 106 110 109 88 48 41 50 73 80 74 88 106 110 105 114 120 124 122 128 120 115 107 113 100 92 95 86 90 85
59 61 42 11 20 10 13 10 20 21 18 20 15 14 7 21 19 14 7 -5 20 36 48 66 69 72 83 64 47 55 57 55 70 92 86 90 113 120 127 128 131 127 114 115 119 109 109 104 100 94 93 91 92 88
19 42 38 17 17 18 16 10 13 23 23 21 18 26 27 18 4 -3 -4 -0 37 53 69 65 74 70 56 51 65 68 70 67 76 92 100 95 100 110 132 141 144 143 110 106 112 106 105 103 99 98 94 96 100 86
6 9 43 73 56 31 32 49 51 39 19 17 10 4 -2 -4 -8 -3 21 60 85 101 104 107 81 56 66 77 90 98 96 90 92 109 118 119 119 122 123 137 140 141 119 115 109 110 110 112 109 104 100 95 93 89
56 46 14 49 70 88 33 42 34 17 12 16 8 1 -9 9 2 34 65 103 133 136 140 136 112 81 90 98 99 106 113 109 123 133 138 142 136 137 143 141 138 133 120 111 113 112 117 114 108 101 95 90 89 84
49 70 75 80 79 56 37 26 11 25 41 44 14 23 16 40 47 56 98 115 106 92 103 106 108 104 131 132 117 94 91 93 115 149 142 143 138 139 121 119 113 108 103 105 100 99 103 101 97 94 92 88 87 80
9 51 18 25 29 20 19 29 24 49 74 84 68 54 58 65 70 83 94 83 76 79 91 90 89 88 102 102 105 102 96 99 102 117 130 136 141 138 121 111 104 103 96 95 99 96 95 92 91 88 86 84 80 76
34 54 36 34 21 29 41 61 74 89 107 108 114 93 84 79 93 121 117 106 101 94 92 99 101 83 84 87 89 110 109 84 88 101 114 133 138 128 116 110 105 99 97 101 97 96 95 91 90 86 79 76 74 71
40 36 25 23 22 31 47 63 73 88 99 98 100 90 86 92 109 114 122 106 93 93 84 85 88 84 81 92 99 101 114 131 128 129 131 127 126 117 109 102 93 86 93 96 100 98 92 87 83 81 75 72 72 71
37 51 56 32 27 32 45 44 53 49 54 59 65 81 86 108 95 121 118 108 94 76 92 104 109 111 108 110 121 135 144 137 137 136 133 128 116 103 94 90 87 94 94 92 90 85 83 80 79 77 76 78 78 84

GFSWCAN_con_3kmhel_081.txt.gz
Helicity
25 23 29 26 33 6 -15 11 43 54 48 44 34 26 21 13 4 -13 4 -24 -17 -26 -42 -37 -41 -35 -3 12 25 -3 -14 24 8 26 -4 -51 132 33 50 39 10 25 36 12 44 61 72 146 38 80 63 42 49 41
-3 36 58 51 47 22 24 56 58 52 51 46 34 33 22 11 6 -19 1 -22 -27 -29 -25 -40 -48 -66 -57 -53 -27 -16 -2 15 8 17 6 27 164 66 90 26 67 58 62 84 77 105 79 50 57 64 58 46 40 19
57 29 50 48 47 24 12 47 53 53 49 39 48 47 28 21 8 -12 3 -9 -9 -2 5 7 6 15 32 37 8 9 -4 10 1 -26 4 35 66 59 51 19 76 80 105 55 40 46 39 44 54 97 85 71 48 39
50 19 33 50 44 27 36 40 56 64 48 42 46 34 20 14 6 -8 -3 2 -15 9 33 35 21 14 6 30 53 29 18 34 14 3 13 32 51 37 31 33 36 34 87 72 1 9 5 39 78 72 73 65 61 73
10 20 24 40 55 26 19 42 64 66 43 43 31 18 20 26 15 -5 -12 -7 -9 -0 23 20 17 -6 21 27 46 34 -6 12 11 10 4 37 22 21 23 16 35 30 20 57 51 49 43 54 51 65 68 59 52 34
-18 -40 51 115 57 23 23 22 45 53 54 39 29 19 20 15 -4 6 19 2 20 18 27 36 77 49 14 10 28 42 10 10 14 -0 2 24 22 5 31 4 18 13 13 33 49 54 91 63 71 52 50 49 62 63
-2 5 28 6 39 43 32 31 22 26 55 44 20 20 19 19 -2 27 30 27 28 130 124 73 53 93 62 37 30 41 57 19 -2 7 10 26 23 -21 10 15 9 7 15 15 -6 54 33 41 14 20 29 23 27 32
54 18 33 22 41 50 46 47 35 35 33 21 20 25 32 21 18 -8 -29 41 173 133 139 92 109 66 49 35 35 59 6 -8 3 21 12 16 16 -4 9 15 20 -3 -1 28 35 30 37 10 10 10 7 17 29 37
30 46 60 52 65 59 49 40 28 18 14 14 30 37 53 36 17 -21 34 117 215 99 93 99 58 40 40 6 13 -2 1 25 1 15 18 23 -0 9 33 19 23 33 20 21 15 17 26 31 18 16 23 37 53 61
31 39 50 60 41 30 22 26 23 21 17 26 59 63 51 44 122 108 86 73 71 83 89 31 -2 5 -10 -13 6 14 4 15 23 3 14 11 25 40 25 70 44 19 29 44 -2 4 6 18 36 50 58 67 82 91
36 55 65 42 12 22 22 12 29 27 54 65 72 91 62 73 96 64 58 57 54 34 23 -3 -2 -8 -5 -3 9 3 15 18 29 -6 -6 -19 -7 7 -9 52 63 55 43 37 57 76 82 86 60 66 85 110 123 140
44 49 54 40 31 21 26 33 38 83 81 67 78 139 96 62 51 51 52 65 10 -17 -6 -2 -0 9 -4 5 24 3 22 9 34 1 -11 -4 14 -10 4 30 34 38 49 66 82 80 91 104 97 98 96 108 123 121
47 48 41 34 43 37 27 39 25 48 56 104 146 105 57 51 38 42 35 17 9 -9 7 7 7 17 4 5 7 13 13 21 -8 3 5 22 -2 -2 -10 -4 15 24 36 51 66 84 99 125 145 124 124 129 135 141
33 38 25 41 44 37 36 42 45 48 125 97 84 75 55 30 1 14 43 22 41 21 7 -5 1 3 -1 -8 12 26 -3 8 9 10 27 10 9 26 36 31 31 38 46 62 74 83 86 98 118 122 114 97 96 105
37 37 35 35 29 38 40 63 61 57 118 83 50 35 4 35 34 55 51 30 29 27 34 29 33 23 5 7 -10 -0 9 2 8 14 26 61 70 41 34 38 49 61 79 96 93 98 111 112 115 117 103 94 86 83
44 52 48 32 43 46 27 7 155 143 116 91 39 8 27 25 24 37 41 27 36 43 33 39 17 4 -12 -5 -17 -5 -3 -14 -13 10 62 73 63 60 60 70 86 95 95 94 98 102 99 90 87 85 73 69 67 70
38 81 46 51 49 62 69 171 171 140 66 54 26 36 49 56 43 55 54 36 44 46 41 31 8 -3 -8 -6 -9 -8 -1 -2 21 70 81 88 80 85 91 98 96 92 104 107 92 76 71 65 57 58 70 68 67 82
73 55 46 54 61 128 173 147 117 71 39 42 7 14 38 43 43 39 35 43 60 44 38 22 9 -9 -12 -10 -14 -12 12 52 61 70 96 113 110 110 104 113 102 87 72 65 67 68 68 61 62 77 87 89 86 86
79 71 60 50 112 160 140 120 117 35 31 32 17 23 27 28 40 38 45 50 50 40 31 15 7 6 2 6 -0 60 60 26 33 78 117 120 99 88 76 60 54 56 68 71 64 68 87 78 101 93 90 84 65 93
56 89 32 62 122 203 102 68 97 30 17 28 32 8 28 35 27 39 44 43 42 39 18 10 17 17 9 15 22 -7 53 71 74 88 95 59 45 52 56 57 63 75 73 81 87 83 92 96 108 115 120 120 100 105
228 199 138 163 251 177 82 97 79 54 37 36 16 11 23 20 28 36 37 47 47 49 9 34 39 70 81 50 63 82 104 67 37 44 46 61 46 51 55 73 76 64 80 81 86 116 107 136 145 126 115 123 113 110
234 216 259 230 143 98 61 105 47 31 41 21 38 44 38 34 26 29 38 37 41 44 60 55 78 61 44 56 74 104 118 118 95 77 74 72 62 70 78 83 81 97 110 115 119 131 137 136 126 112 101 110 89 97
226 206 163 114 31 41 66 77 50 42 28 50 52 42 31 26 25 27 26 29 51 62 81 97 86 102 108 107 113 110 91 66 54 63 61 77 92 102 105 103 112 119 118 128 127 133 138 135 116 105 111 95 102 98
198 151 103 36 29 62 58 40 32 27 36 44 24 12 4 5 2 24 23 25 70 75 82 75 103 104 102 93 92 100 75 67 84 86 78 85 97 107 107 112 113 125 135 157 139 141 130 118 120 96 113 101 100 103
107 98 68 21 18 14 19 15 27 22 18 16 6 -0 -8 4 4 11 17 23 33 48 69 84 87 78 75 105 114 94 66 56 69 92 84 91 114 115 121 125 135 145 135 141 135 129 124 116 110 106 105 102 103 100
51 54 52 18 24 24 25 14 5 13 15 2 -4 9 13 9 4 2 12 23 42 67 76 88 94 99 96 83 82 83 87 79 84 103 99 95 102 111 123 136 139 147 139 137 129 129 126 124 114 112 106 110 133 108
5 27 34 61 65 34 26 47 31 12 -2 -1 -1 5 5 5 -11 12 26 99 80 121 120 113 92 89 113 136 122 101 111 122 126 122 115 127 136 142 136 142 166 190 141 133 125 121 132 133 127 125 122 116 113 111
40 21 11 23 51 69 22 11 -1 -4 13 33 26 21 7 19 15 38 53 85 153 178 207 217 185 153 121 101 99 113 135 122 116 113 123 136 132 136 150 160 169 169 147 129 132 125 131 139 133 124 119 114 112 102
53 59 49 42 53 39 35 44 36 65 79 75 47 21 16 42 32 36 57 86 107 116 132 144 151 131 120 119 119 116 102 90 103 128 135 159 148 138 134 140 136 126 118 127 127 122 131 128 126 120 113 106 102 95
54 88 71 65 56 46 65 96 49 62 104 105 68 23 22 33 57 65 75 115 125 111 109 112 109 102 119 119 126 122 104 100 107 114 145 163 164 154 134 132 127 123 114 118 117 118 107 96 104 94 91 92 87 94
80 97 84 74 60 76 80 80 58 29 27 35 82 68 61 62 81 127 180 176 140 122 119 115 112 99 103 101 101 107 120 96 111 131 141 147 143 142 137 131 123 119 118 113 117 116 114 97 95 94 90 95 96 95
61 72 65 42 14 9 3 6 5 11 24 36 68 85 92 86 94 100 137 154 135 126 122 108 115 125 129 135 127 131 152 127 132 140 146 145 147 137 127 120 111 108 107 114 114 107 100 98 95 100 99 98 103 100
28 35 35 2 -13 -13 22 29 23 38 57 63 70 81 108 119 91 90 154 222 202 124 139 146 131 120 127 126 121 123 138 147 166 170 180 172 151 128 114 108 104 101 106 101 98 95 94 96 99 104 100 106 109 109

GFSWCAN_con_3kmhel_084.txt.gz
Helicity
19 6 22 36 20 40 23 6 -11 18 35 37 33 33 38 36 33 34 47 26 53 38 39 -25 -35 -28 -9 -10 -2 16 20 26 2 5 8 -11 16 50 53 9 -22 -31 -10 12 55 25 34 181 103 105 116 82 68 22
46 47 69 115 76 41 22 -0 17 42 54 48 35 29 34 30 24 21 51 22 -5 9 -10 -16 -47 -63 -69 -61 -7 11 5 14 26 26 11 13 119 50 30 43 57 26 30 39 44 69 33 14 31 50 66 59 28 1
59 33 54 24 11 30 -4 3 40 55 69 61 47 32 34 33 13 12 77 5 11 36 40 13 14 20 21 19 6 4 29 48 19 -42 -14 22 67 66 7 -9 29 158 105 -7 -11 26 28 8 2 35 76 76 71 64
55 18 22 35 55 40 22 31 45 53 66 58 45 48 37 33 31 20 47 19 23 38 44 33 34 -2 21 6 27 30 6 29 7 -2 2 39 48 17 28 20 -49 15 81 80 -11 -5 11 17 17 33 45 61 74 65
92 48 20 61 57 50 25 38 44 49 58 52 48 43 38 31 27 27 51 22 23 39 34 6 -1 14 31 26 17 22 35 12 12 1 11 44 28 30 19 4 -4 14 14 35 48 39 25 33 24 51 79 75 43 28
80 82 95 70 54 52 34 32 41 44 62 50 55 42 31 29 24 52 62 37 2 26 34 41 26 46 47 54 34 13 36 37 11 4 -1 7 43 4 20 21 6 -3 2 11 27 33 44 41 61 58 45 42 55 54
67 40 39 8 59 50 21 10 32 36 42 37 39 31 28 29 26 55 67 50 55 80 36 -0 2 34 16 38 40 53 57 67 -0 -7 -2 32 46 -1 4 21 26 16 4 17 26 47 50 68 34 15 10 14 22 33
43 12 35 22 38 40 5 8 33 32 25 43 44 31 34 37 43 18 -18 22 29 19 18 23 34 56 65 55 51 71 70 44 -15 -3 9 27 14 -1 18 16 23 10 19 23 34 30 34 4 -5 -13 -9 1 31 44
34 46 3 54 114 54 29 22 33 22 38 39 34 34 58 38 14 -6 24 30 73 44 48 54 64 57 26 25 48 45 29 -8 -8 13 19 12 15 9 67 46 10 6 34 14 15 24 24 28 21 30 39 51 63 62
55 75 40 -0 16 42 43 50 51 40 39 43 83 75 50 -4 75 59 33 37 36 54 94 111 54 13 32 24 -2 9 8 27 23 12 2 31 16 68 105 58 39 31 17 36 21 4 18 25 52 88 109 134 132 111
46 81 46 50 43 55 51 65 43 42 48 87 71 69 41 45 41 23 24 18 36 58 65 10 7 -3 -11 -3 6 16 20 19 27 11 9 7 19 36 2 37 55 66 65 67 61 84 106 128 104 109 114 136 145 140
46 57 60 71 50 46 48 49 44 54 51 30 61 57 50 36 32 44 42 56 60 55 32 14 13 -4 -0 -6 11 11 23 17 39 15 -0 -4 13 14 20 12 49 56 68 74 91 88 105 118 118 124 116 110 113 111
38 54 64 64 50 39 44 41 7 44 24 39 65 56 50 50 52 46 50 54 42 20 15 22 16 12 7 -9 7 19 21 33 -7 9 -2 1 4 -12 7 21 30 25 40 54 81 102 123 139 138 114 115 108 106 105
41 51 71 53 43 35 27 24 40 37 64 83 72 58 80 47 36 32 16 13 33 15 1 13 21 11 6 -9 -2 20 13 2 4 3 5 -1 22 59 80 62 68 57 64 75 88 93 95 95 114 114 97 85 85 88
49 53 50 56 41 40 40 37 40 -13 145 111 81 56 34 53 57 38 43 33 31 22 13 14 18 1 -6 5 -8 -1 3 10 7 7 12 61 81 64 53 56 64 60 68 77 74 76 86 97 95 96 89 79 76 71
52 65 58 45 48 40 37 88 95 68 96 85 78 60 50 34 11 16 34 33 22 35 44 33 34 25 5 -4 -15 6 21 -0 -1 21 66 79 74 79 77 69 61 63 78 75 73 79 72 59 68 70 64 65 66 68
50 75 57 55 41 41 64 101 106 77 70 47 22 33 35 41 39 41 51 42 37 47 51 42 24 -5 -7 -9 2 -0 1 5 26 42 54 70 76 90 84 75 72 70 76 79 62 54 67 61 47 53 82 73 70 87
65 60 51 60 93 149 111 78 81 50 15 9 19 -1 19 42 46 33 44 39 48 46 41 21 26 -15 -17 -20 -19 -11 1 60 66 72 81 105 108 83 59 66 62 63 59 65 67 63 62 52 58 78 86 89 84 81
36 54 68 75 102 119 76 76 118 56 49 40 35 23 25 19 31 43 29 38 51 62 47 14 -3 -3 11 13 8 58 66 32 6 18 59 123 105 79 65 59 57 64 73 77 73 70 85 80 117 123 106 91 72 98
20 46 56 49 131 170 101 52 84 43 27 23 29 7 16 18 20 30 47 50 33 39 11 8 23 30 36 24 42 63 -7 98 112 103 118 104 67 58 58 55 64 75 77 83 89 82 79 75 95 119 137 139 144 158
114 85 64 75 109 181 78 42 57 34 10 25 35 7 14 11 33 28 35 29 40 45 30 40 51 70 97 101 106 79 94 81 50 56 71 56 42 51 55 63 78 64 75 74 73 97 89 141 178 170 130 135 136 112
138 118 76 66 115 119 68 71 53 23 14 19 27 5 6 18 14 20 26 16 38 60 81 65 82 80 96 56 70 85 84 93 112 121 75 53 48 56 72 81 74 87 104 110 109 134 141 174 181 139 123 145 107 88
114 123 86 82 88 73 36 69 43 11 23 13 27 6 -2 13 21 10 13 24 58 62 89 109 93 126 145 134 120 102 104 115 112 87 48 48 62 77 91 90 102 129 120 123 140 152 184 180 149 138 130 111 107 113
199 123 102 87 44 3 34 51 37 34 27 15 10 13 5 14 5 20 25 26 73 76 147 173 159 128 118 107 100 101 114 122 113 85 88 99 105 108 105 114 131 156 169 198 168 171 167 162 150 118 121 132 118 118
127 148 106 39 29 26 30 28 33 24 28 42 25 12 -2 4 -3 2 14 33 69 93 123 116 86 89 91 115 140 153 129 115 98 90 78 86 120 120 126 145 163 156 131 141 136 140 142 159 137 124 132 137 134 140
69 69 78 27 23 17 11 4 2 15 20 14 2 15 2 2 -4 -9 37 59 54 88 85 74 84 97 126 135 124 133 132 97 101 117 126 111 93 92 112 128 139 146 144 151 163 157 155 182 179 157 140 128 164 126
46 50 45 73 68 41 48 59 36 24 2 -9 -2 -4 -10 -14 -18 36 59 129 66 85 103 113 116 127 141 131 177 216 199 158 107 159 165 165 165 185 181 164 221 195 174 165 159 157 176 182 165 152 134 122 126 143
44 25 32 44 60 70 38 26 9 -9 -0 26 6 -5 1 35 42 72 78 81 97 113 169 191 182 189 216 222 196 178 167 172 184 166 144 136 128 141 166 185 205 230 184 176 167 151 156 154 150 132 132 142 130 118
41 61 67 49 61 38 21 26 29 72 76 54 38 30 43 81 83 63 44 95 136 158 208 268 289 247 217 186 145 124 107 99 110 127 131 143 129 129 137 154 162 155 142 146 138 148 143 132 143 137 127 118 112 94
69 98 66 60 49 34 78 111 87 62 89 116 92 74 73 75 76 61 52 66 84 106 148 170 162 154 161 144 156 169 172 162 133 103 115 134 161 135 132 142 149 139 126 131 129 121 101 98 94 106 105 102 111 131
150 146 94 67 54 102 86 75 63 47 46 64 88 107 107 62 67 102 137 132 169 214 172 163 155 139 137 131 119 129 137 125 143 157 162 152 140 148 154 147 133 123 120 119 117 140 134 119 122 123 123 122 118 129
118 104 92 67 45 56 45 35 27 33 43 57 86 109 53 13 33 64 133 175 144 129 163 167 161 179 176 192 184 164 179 137 130 131 140 143 145 141 135 122 109 111 113 118 132 131 129 126 114 117 123 127 139 136
105 105 107 70 40 26 60 55 26 26 41 32 18 8 26 80 88 111 138 213 207 157 195 232 211 196 178 170 160 160 178 181 196 197 210 185 159 129 115 110 108 107 113 125 128 122 124 120 122 123 118 138 144 139